Wind_Speed
41 43 45 48 50 51 52 52 53 54 53 53 53 54 54 55 55 56 56 57 58 58 59 59 60 61 62 63 64 65 65 65 64 61 59 55 53 53 53 53 51 49 48
43 46 48 50 52 53 53 54 54 53 53 52 52 53 54 55 55 56 56 57 58 59 59 60 61 62 63 63 62 61 59 57 56 52 50 48 46 45 45 45 43 43 42
47 48 50 53 53 53 54 54 53 52 51 52 52 53 53 54 55 56 57 58 58 59 60 61 61 61 60 58 56 53 50 48 46 44 41 40 39 39 39 38 38 37 36
51 51 52 52 52 53 53 52 51 51 51 52 52 52 53 54 55 56 57 58 59 59 60 60 59 57 53 49 45 43 41 40 38 35 33 32 32 33 33 32 31 30 29
52 51 50 51 53 53 52 51 50 50 51 51 51 52 53 54 55 56 57 58 58 58 57 55 52 48 44 41 39 37 35 33 30 28 27 27 27 27 26 25 24 23 22
50 50 51 53 53 52 50 48 49 50 50 50 51 52 54 55 56 56 57 57 56 54 51 47 44 42 40 38 35 33 30 27 25 24 23 22 22 21 19 18 17 16 16
50 52 52 52 51 49 47 48 48 49 49 50 51 53 54 55 55 55 55 54 51 48 45 42 41 40 37 34 31 28 25 22 21 20 19 18 16 14 12 10 10 11 12
51 53 53 51 48 46 46 47 47 48 49 50 52 53 54 54 53 52 50 47 45 43 41 39 37 34 32 29 25 22 19 17 16 14 13 10 8 6 5 5 6 7 8
54 54 50 46 44 44 45 45 46 47 49 51 51 51 51 51 49 46 43 41 40 38 37 34 30 28 25 21 17 14 12 11 9 7 5 3 1 2 2 3 3 4 6
52 48 43 42 42 42 43 44 46 47 49 49 49 49 47 45 41 39 37 36 35 32 30 27 24 19 15 11 8 6 5 3 2 2 2 3 4 4 4 3 2 2 4
43 40 39 39 40 41 42 44 45 47 47 48 47 44 41 38 36 35 34 32 28 26 24 21 17 12 7 4 2 1 2 4 4 5 6 7 7 7 6 4 2 1 1
36 36 36 37 39 40 42 43 44 45 46 44 42 38 35 33 32 31 29 27 24 22 17 14 9 6 3 3 5 6 7 8 9 9 10 9 9 7 6 5 4 4 2
33 34 35 37 39 41 42 43 44 43 41 38 35 33 31 29 28 27 25 24 22 18 13 9 6 7 8 9 10 10 11 11 12 11 11 10 9 8 7 7 7 6 6
31 33 35 38 40 41 42 42 41 38 34 32 30 29 27 25 24 22 21 21 18 13 9 8 9 10 11 12 13 13 13 13 12 12 11 10 9 8 8 9 10 10 11
31 34 37 39 40 41 40 38 34 30 27 26 25 25 23 21 20 18 17 15 12 8 7 9 11 13 14 15 15 15 14 13 13 12 10 9 9 10 11 12 13 14 15
33 35 38 39 40 38 34 30 26 23 22 22 22 21 18 16 17 15 14 12 9 8 10 12 14 15 16 17 17 16 15 14 12 11 10 10 11 12 14 15 16 16 17
33 36 38 37 35 31 27 22 20 19 20 20 19 16 14 14 14 12 11 9 9 10 12 14 15 16 17 17 16 15 14 13 11 11 11 11 13 15 16 17 18 18 19
34 35 34 31 28 24 20 18 18 19 19 18 16 13 11 12 11 10 11 11 10 11 13 15 16 17 17 16 15 14 13 12 11 11 12 14 16 17 17 18 19 19 19
32 30 28 25 21 18 17 17 17 18 18 16 14 12 10 10 9 10 11 11 11 12 14 15 16 16 16 15 14 13 12 12 12 12 14 16 18 18 19 19 19 19 19
27 25 23 20 18 18 17 17 17 17 16 15 13 11 9 9 10 11 12 12 12 13 15 15 15 15 14 13 13 12 12 12 12 13 15 18 19 19 19 19 19 19 18
23 21 20 18 18 18 18 17 16 15 14 13 11 10 9 10 11 13 13 13 13 14 15 14 14 14 13 12 12 12 12 12 13 14 17 19 20 20 20 20 19 19 18
21 20 19 18 18 18 18 17 16 14 13 12 10 10 11 12 13 14 15 15 14 14 14 14 13 12 11 11 11 11 12 13 14 16 18 20 21 21 21 20 19 19 19
21 20 19 19 18 18 18 18 16 14 13 12 11 11 12 13 15 16 17 16 15 14 14 13 12 12 11 11 11 12 13 14 15 16 17 19 20 20 20 20 20 20 19
23 22 20 20 19 19 18 18 17 15 14 14 13 12 13 14 16 17 17 17 16 15 14 13 12 12 11 11 12 12 13 14 15 16 18 19 19 19 18 18 18 18 17
26 25 23 22 21 20 19 19 18 17 16 15 15 14 14 15 16 17 17 17 16 15 14 13 12 11 12 12 12 13 14 15 15 16 17 18 18 17 16 16 15 15 14
30 29 27 26 25 24 22 21 20 19 19 18 17 17 16 16 17 17 17 17 16 15 14 12 12 11 12 12 12 13 14 14 15 15 16 16 16 15 14 14 13 12 11
Wind_Direction
291 294 297 299 301 303 304 305 305 304 303 302 301 300 299 299 298 297 297 296 296 295 295 294 293 292 291 291 290 289 288 287 286 284 283 280 277 274 271 269 267 266 264
293 296 298 301 302 302 302 304 304 304 302 302 301 300 300 299 299 298 298 297 297 297 296 295 295 294 294 293 292 291 289 288 287 286 284 281 277 273 270 268 267 265 263
295 298 299 300 301 301 302 303 303 303 302 301 301 301 301 300 300 299 299 299 299 298 298 298 297 297 296 294 293 291 289 288 288 287 284 280 276 273 270 269 267 265 262
296 297 298 299 300 300 301 301 302 302 302 302 302 302 302 301 301 302 302 302 301 301 301 300 299 298 297 296 293 292 290 290 289 287 285 281 277 274 272 269 267 263 259
294 295 297 298 298 298 298 300 302 303 303 303 303 303 304 304 304 304 304 304 303 303 302 301 300 299 298 296 294 292 292 291 289 289 286 283 278 274 273 270 265 259 254
291 292 295 296 295 296 297 300 302 303 304 305 305 306 306 307 307 307 307 306 305 304 303 302 301 299 299 297 294 292 292 290 289 289 288 284 280 276 272 266 259 252 245
288 289 290 291 293 296 299 301 303 305 306 307 308 309 309 309 309 309 308 307 306 305 304 303 301 300 298 296 294 291 290 288 289 289 285 282 279 274 267 258 249 241 238
286 286 288 291 294 298 301 303 305 307 309 310 311 311 311 312 312 311 310 308 308 307 306 305 304 301 298 295 292 287 287 287 288 286 282 279 274 266 250 235 231 233 236
283 284 287 293 298 301 303 306 308 310 311 312 313 313 314 314 314 312 311 311 311 311 310 309 308 304 300 295 290 284 284 286 283 277 276 268 249 183 168 178 200 220 234
279 284 291 298 301 304 307 309 311 312 313 313 314 316 316 315 315 314 315 316 316 316 316 315 314 312 306 299 291 281 278 272 232 192 158 127 123 122 122 127 148 196 240
283 293 299 303 306 308 310 311 312 313 314 315 316 317 317 317 318 319 320 321 322 322 322 321 321 322 320 317 313 149 135 136 138 130 119 113 112 111 108 108 112 130 253
295 301 305 307 309 311 312 313 314 315 316 318 319 320 320 321 323 324 326 328 330 332 333 334 341 355 28 74 96 107 117 123 122 118 114 111 109 103 97 93 92 94 91
304 307 309 311 313 314 314 315 316 317 318 320 321 323 324 325 327 329 331 334 338 343 352 6 32 64 82 92 100 107 113 117 115 111 111 108 101 92 89 92 94 91 80
310 312 314 315 315 316 316 317 318 319 320 322 324 326 327 329 331 334 336 339 344 353 16 47 72 83 91 97 102 106 110 111 109 108 108 102 92 90 94 98 97 90 80
316 317 317 317 317 318 319 320 321 322 323 325 326 328 330 332 336 339 342 348 357 19 53 78 87 93 97 101 104 106 108 107 106 105 102 95 92 96 103 105 102 92 81
320 320 320 320 320 322 323 325 327 328 330 330 330 333 336 339 342 347 353 5 27 61 84 93 97 100 102 104 105 106 107 105 104 101 97 95 98 106 111 110 104 94 86
324 324 324 325 326 328 330 333 336 337 337 336 338 342 347 350 353 2 14 31 59 86 99 104 106 106 107 106 105 105 104 101 99 97 96 101 107 113 116 114 108 98 93
330 329 330 332 335 338 341 344 345 344 344 347 351 356 360 1 8 22 37 51 76 98 108 111 110 109 107 105 102 101 100 99 99 96 98 108 114 116 119 118 112 104 99
336 338 341 344 348 352 353 351 350 350 354 358 4 11 15 19 32 45 52 65 89 106 114 114 112 110 108 104 101 99 98 100 99 97 105 115 118 120 122 122 118 111 107
346 350 355 359 2 2 360 358 358 360 3 8 15 23 30 40 52 59 66 78 96 109 116 115 113 111 107 102 99 97 96 101 101 104 112 120 122 123 125 124 121 116 113
359 3 6 8 9 7 6 6 7 10 14 19 28 38 48 58 64 68 75 84 97 110 116 116 114 112 107 99 97 97 97 101 104 110 119 124 126 126 125 124 122 119 116
9 11 13 14 12 11 12 13 16 19 24 32 43 52 62 70 74 75 81 88 97 108 117 117 114 111 105 99 100 99 100 104 109 115 122 127 128 128 127 124 122 119 117
17 18 18 17 16 17 18 20 22 28 36 43 51 62 70 77 81 83 86 91 97 105 113 115 113 109 103 101 104 103 102 107 112 118 124 129 131 130 128 125 122 118 115
24 24 24 23 23 24 25 28 32 38 46 50 59 71 79 84 87 88 90 91 95 100 106 109 109 107 105 103 104 104 104 108 114 118 124 128 130 129 128 124 120 118 115
32 32 32 32 32 33 34 37 41 47 52 58 66 76 83 88 91 92 92 92 93 96 100 103 105 104 104 104 103 104 107 110 114 119 124 128 128 128 126 123 119 115 113
40 40 41 42 42 42 44 45 49 53 59 64 70 76 82 88 91 92 92 91 91 92 94 96 98 100 101 102 104 107 110 112 115 119 122 127 130 131 131 128 125 123 121
Height
5758 5754 5750 5746 5741 5735 5729 5724 5717 5711 5705 5698 5691 5685 5678 5671 5664 5657 5650 5643 5636 5629 5623 5617 5611 5604 5598 5591 5584 5578 5572 5566 5562 5559 5554 5550 5547 5544 5544 5544 5545 5547 5549
5748 5743 5739 5734 5729 5723 5717 5711 5705 5698 5692 5685 5679 5672 5665 5658 5651 5644 5636 5629 5622 5615 5608 5601 5594 5586 5579 5572 5565 5559 5553 5547 5543 5540 5537 5533 5531 5529 5529 5529 5530 5532 5533
5736 5732 5727 5722 5717 5711 5705 5699 5693 5686 5680 5673 5666 5659 5652 5645 5637 5630 5622 5614 5607 5599 5591 5584 5576 5569 5562 5555 5548 5543 5537 5533 5528 5525 5523 5519 5517 5516 5516 5517 5518 5519 5520
5725 5720 5715 5710 5705 5699 5693 5687 5681 5674 5667 5661 5654 5646 5639 5631 5624 5615 5607 5599 5591 5583 5575 5567 5559 5552 5546 5540 5534 5529 5525 5521 5517 5514 5511 5509 5507 5506 5506 5507 5508 5508 5510
5713 5708 5703 5698 5693 5687 5681 5675 5669 5662 5655 5649 5641 5633 5625 5618 5610 5601 5592 5584 5576 5568 5560 5551 5544 5538 5532 5527 5523 5518 5514 5511 5508 5505 5503 5500 5499 5498 5498 5499 5499 5500 5502
5700 5695 5691 5686 5681 5675 5669 5663 5657 5650 5643 5636 5628 5620 5611 5604 5595 5586 5577 5568 5560 5553 5545 5538 5532 5526 5521 5516 5512 5508 5505 5503 5500 5498 5496 5494 5493 5492 5492 5493 5494 5495 5498
5688 5684 5679 5674 5669 5663 5657 5651 5645 5638 5631 5623 5615 5606 5597 5589 5581 5572 5563 5554 5547 5539 5533 5526 5520 5515 5510 5506 5502 5499 5498 5496 5494 5492 5491 5489 5488 5488 5488 5489 5491 5493 5495
5678 5673 5668 5662 5657 5652 5646 5640 5633 5626 5618 5610 5602 5593 5584 5576 5568 5559 5550 5542 5535 5528 5522 5515 5510 5504 5499 5496 5494 5493 5492 5491 5489 5488 5487 5486 5486 5486 5487 5488 5490 5492 5494
5668 5662 5656 5651 5646 5640 5634 5628 5621 5613 5605 5598 5590 5582 5573 5564 5556 5548 5540 5532 5525 5518 5512 5506 5500 5495 5491 5489 5488 5487 5487 5487 5486 5486 5486 5486 5486 5486 5487 5489 5490 5492 5493
5657 5651 5646 5641 5635 5629 5623 5616 5609 5601 5594 5587 5579 5571 5563 5555 5547 5539 5532 5524 5517 5510 5504 5498 5493 5489 5487 5485 5484 5485 5485 5485 5485 5486 5486 5487 5487 5488 5489 5490 5491 5492 5492
5645 5640 5636 5630 5624 5618 5612 5605 5598 5591 5584 5577 5570 5562 5554 5547 5539 5532 5524 5517 5511 5505 5499 5494 5490 5487 5485 5484 5483 5484 5485 5485 5486 5487 5488 5489 5490 5491 5492 5492 5493 5492 5492
5635 5631 5626 5620 5614 5608 5601 5594 5587 5580 5573 5566 5560 5553 5546 5539 5532 5525 5519 5512 5506 5500 5496 5491 5488 5486 5485 5484 5485 5485 5486 5488 5489 5490 5491 5492 5493 5494 5494 5494 5494 5494 5493
5627 5622 5617 5611 5605 5598 5591 5585 5578 5571 5564 5558 5551 5545 5539 5533 5527 5521 5515 5509 5503 5498 5494 5491 5489 5487 5487 5487 5487 5488 5490 5491 5493 5494 5495 5496 5497 5497 5497 5497 5497 5496 5495
5620 5614 5608 5602 5595 5589 5582 5575 5569 5562 5556 5551 5545 5539 5534 5528 5523 5518 5513 5508 5503 5498 5495 5493 5491 5490 5490 5490 5491 5493 5494 5496 5497 5498 5499 5500 5500 5500 5500 5500 5500 5499 5498
5613 5607 5600 5594 5587 5580 5573 5566 5560 5555 5550 5545 5540 5535 5530 5525 5520 5516 5511 5507 5502 5499 5497 5495 5494 5494 5494 5495 5496 5498 5499 5501 5502 5503 5503 5504 5504 5504 5504 5504 5504 5504 5503
5606 5600 5593 5586 5578 5571 5565 5560 5554 5550 5545 5541 5536 5531 5527 5523 5518 5514 5510 5507 5503 5501 5500 5499 5498 5499 5499 5500 5502 5503 5504 5505 5506 5507 5507 5507 5508 5508 5509 5510 5510 5509 5509
5600 5593 5585 5578 5571 5565 5559 5554 5550 5546 5542 5537 5533 5528 5525 5521 5518 5514 5511 5508 5505 5504 5503 5503 5503 5504 5505 5506 5507 5508 5509 5510 5511 5511 5511 5511 5512 5513 5514 5515 5516 5516 5516
5594 5587 5579 5572 5566 5560 5556 5552 5548 5544 5539 5535 5531 5527 5524 5521 5518 5515 5512 5509 5508 5507 5507 5508 5508 5509 5510 5511 5512 5513 5514 5514 5515 5515 5515 5516 5517 5518 5520 5521 5522 5523 5523
5589 5582 5575 5569 5563 5559 5554 5550 5546 5542 5537 5533 5530 5527 5524 5522 5519 5516 5514 5512 5511 5511 5511 5512 5513 5515 5516 5517 5517 5518 5518 5519 5519 5519 5520 5521 5522 5523 5525 5527 5528 5529 5530
5586 5579 5573 5568 5563 5558 5554 5550 5545 5541 5537 5533 5530 5528 5525 5523 5521 5519 5517 5515 5515 5515 5516 5517 5518 5520 5521 5521 5522 5523 5523 5523 5523 5524 5524 5526 5527 5529 5531 5533 5534 5536 5537
5584 5578 5573 5568 5563 5558 5554 5549 5545 5541 5538 5534 5532 5529 5527 5525 5523 5521 5520 5519 5519 5519 5521 5522 5523 5524 5525 5526 5527 5527 5527 5528 5528 5529 5530 5531 5533 5535 5537 5538 5540 5542 5544
5584 5578 5573 5568 5563 5559 5554 5550 5546 5542 5538 5536 5533 5531 5529 5528 5526 5525 5524 5523 5523 5524 5525 5526 5528 5529 5530 5530 5531 5531 5532 5532 5533 5534 5535 5537 5539 5541 5543 5545 5546 5548 5550
5585 5579 5574 5569 5564 5560 5555 5551 5547 5543 5540 5537 5535 5534 5532 5531 5530 5529 5528 5528 5528 5529 5530 5531 5532 5533 5534 5534 5535 5536 5536 5537 5537 5538 5540 5542 5544 5546 5548 5550 5552 5554 5556
5587 5581 5576 5571 5566 5562 5557 5553 5549 5545 5543 5540 5538 5536 5535 5534 5533 5533 5533 5533 5533 5533 5534 5535 5536 5537 5538 5538 5539 5539 5540 5541 5542 5543 5545 5547 5549 5552 5554 5556 5558 5559 5561
5590 5584 5579 5574 5569 5564 5560 5556 5552 5549 5546 5543 5541 5540 5539 5538 5538 5538 5538 5538 5538 5538 5539 5539 5540 5541 5542 5542 5543 5544 5544 5546 5547 5548 5550 5552 5554 5556 5558 5561 5562 5564 5566
5594 5589 5583 5578 5573 5568 5564 5560 5556 5553 5550 5548 5546 5544 5543 5543 5542 5542 5542 5543 5543 5543 5543 5544 5544 5545 5546 5546 5547 5548 5549 5550 5551 5553 5554 5556 5558 5560 5563 5565 5567 5568 5570